TimeCDT,TemperatureF,Dew PointF,Humidity,Sea Level PressureIn,VisibilityMPH,Wind Direction,Wind SpeedMPH,Gust SpeedMPH,PrecipitationIn,Events,Conditions,WindDirDegrees,DateUTC
12:16 AM,41.0,37.4,87,29.96,3.0,NE,11.5,-,N/A,,Overcast,50,2013-04-09 05:16:00
12:36 AM,41.0,37.4,87,29.95,4.0,NE,11.5,-,N/A,,Overcast,50,2013-04-09 05:36:00
12:55 AM,41.0,37.4,87,29.94,4.0,NE,12.7,19.6,N/A,,Overcast,50,2013-04-09 05:55:00
1:16 AM,41.0,37.4,87,29.94,4.0,NE,12.7,18.4,N/A,,Overcast,50,2013-04-09 06:16:00
1:36 AM,41.0,37.4,87,29.92,4.0,NE,15.0,19.6,N/A,,Overcast,50,2013-04-09 06:36:00
1:55 AM,39.2,37.4,93,29.90,4.0,NE,15.0,19.6,N/A,,Overcast,40,2013-04-09 06:55:00
2:16 AM,39.2,37.4,93,29.88,4.0,NE,16.1,20.7,N/A,,Overcast,50,2013-04-09 07:16:00
2:36 AM,39.2,37.4,93,29.90,4.0,ENE,16.1,24.2,N/A,,Overcast,60,2013-04-09 07:36:00
2:55 AM,39.2,37.4,93,29.92,4.0,ENE,15.0,20.7,N/A,,Overcast,60,2013-04-09 07:55:00
3:16 AM,39.2,37.4,93,29.91,4.0,ENE,13.8,21.9,N/A,,Overcast,60,2013-04-09 08:16:00
3:36 AM,39.2,37.4,93,29.92,4.0,ENE,12.7,18.4,N/A,,Overcast,60,2013-04-09 08:36:00
3:55 AM,39.2,35.6,87,29.91,4.0,ENE,15.0,20.7,N/A,Thunderstorm,Overcast,60,2013-04-09 08:55:00
4:16 AM,39.2,37.4,93,29.93,4.0,NE,13.8,18.4,N/A,,Overcast,50,2013-04-09 09:16:00
4:36 AM,39.2,37.4,93,29.91,4.0,NE,13.8,-,N/A,Rain-Thunderstorm,Rain,40,2013-04-09 09:36:00
4:55 AM,39.2,35.6,87,29.88,4.0,NE,16.1,23.0,N/A,Rain-Thunderstorm,Light Thunderstorms and Rain,40,2013-04-09 09:55:00
5:15 AM,39.2,35.6,87,29.84,3.0,NE,18.4,27.6,0.02,Rain,Rain,50,2013-04-09 10:15:00
5:36 AM,39.2,35.6,87,29.90,4.0,NNE,10.4,17.3,0.05,Rain,Rain,30,2013-04-09 10:36:00
5:55 AM,39.2,35.6,87,29.89,4.0,NE,15.0,21.9,0.07,Rain,Rain,40,2013-04-09 10:55:00
6:15 AM,39.2,35.6,87,29.89,4.0,NE,12.7,24.2,0.01,Rain,Light Rain,50,2013-04-09 11:15:00
6:36 AM,39.2,37.4,93,29.92,5.0,NE,10.4,16.1,0.01,Rain,Light Rain,40,2013-04-09 11:36:00
7:15 AM,39.2,37.4,93,29.90,5.0,NE,15.0,19.6,N/A,Rain,Light Rain,50,2013-04-09 12:15:00
7:36 AM,39.2,37.4,93,29.89,5.0,NE,16.1,23.0,N/A,Rain,Light Rain,50,2013-04-09 12:36:00
7:56 AM,39.2,37.4,93,29.88,5.0,NE,17.3,23.0,N/A,Rain,Light Rain,50,2013-04-09 12:56:00
8:15 AM,39.2,35.6,87,29.87,5.0,NE,17.3,26.5,0.02,Rain,Rain,50,2013-04-09 13:15:00
8:36 AM,39.2,35.6,87,29.86,4.0,NE,16.1,24.2,0.06,Rain-Thunderstorm,Rain,50,2013-04-09 13:36:00
8:56 AM,39.2,35.6,87,29.89,2.5,NE,11.5,17.3,0.01,Rain-Thunderstorm,Heavy Thunderstorms and Rain,40,2013-04-09 13:56:00
9:15 AM,39.2,35.6,87,29.89,2.0,NE,15.0,21.9,0.13,Rain-Thunderstorm,Heavy Thunderstorms and Rain,50,2013-04-09 14:15:00
9:36 AM,39.2,35.6,87,29.90,1.0,NE,18.4,26.5,0.30,Thunderstorm,Thunderstorm,50,2013-04-09 14:36:00
9:55 AM,37.4,35.6,93,29.92,1.5,NE,12.7,-,0.41,Rain-Thunderstorm,Heavy Thunderstorms and Rain,40,2013-04-09 14:55:00
10:15 AM,37.4,35.6,93,29.92,1.5,NE,15.0,19.6,0.12,Rain-Thunderstorm,Heavy Thunderstorms and Rain,50,2013-04-09 15:15:00
10:36 AM,37.4,35.6,93,29.83,10.0,ENE,24.2,35.7,0.16,Rain-Thunderstorm,Light Thunderstorms and Rain,60,2013-04-09 15:36:00
10:55 AM,39.2,35.6,87,29.86,10.0,NE,19.6,29.9,0.16,,Light Drizzle,50,2013-04-09 15:55:00
11:15 AM,39.2,35.6,87,29.89,10.0,NE,16.1,27.6,N/A,Thunderstorm,Overcast,40,2013-04-09 16:15:00
11:35 AM,39.2,35.6,87,29.93,7.0,NNE,16.1,24.2,0.01,Rain,Light Rain,20,2013-04-09 16:35:00
11:56 AM,39.2,35.6,87,29.93,10.0,North,15.0,24.2,N/A,Rain,Light Rain,10,2013-04-09 16:56:00
12:15 PM,39.2,35.6,87,29.92,10.0,NNE,16.1,25.3,N/A,Rain,Light Rain,30,2013-04-09 17:15:00
12:36 PM,39.2,35.6,87,29.92,10.0,NNE,15.0,24.2,N/A,,Light Drizzle,30,2013-04-09 17:36:00
12:55 PM,39.2,35.6,87,29.91,10.0,NNE,19.6,27.6,N/A,,Overcast,30,2013-04-09 17:55:00
1:15 PM,39.2,35.6,87,29.90,10.0,NNE,19.6,29.9,N/A,,Overcast,30,2013-04-09 18:15:00
1:36 PM,39.2,35.6,87,29.91,10.0,NE,13.8,27.6,N/A,,Overcast,40,2013-04-09 18:36:00
1:55 PM,39.2,35.6,87,29.91,10.0,NE,16.1,28.8,N/A,,Drizzle,40,2013-04-09 18:55:00
2:15 PM,39.2,35.6,87,29.91,7.0,NE,18.4,28.8,N/A,Rain,Light Rain,50,2013-04-09 19:15:00
2:36 PM,39.2,35.6,87,29.92,7.0,ENE,20.7,28.8,N/A,,Light Drizzle,60,2013-04-09 19:36:00
2:55 PM,39.2,37.4,93,29.92,7.0,NE,16.1,29.9,N/A,,Light Drizzle,50,2013-04-09 19:55:00
3:15 PM,41.0,37.4,87,29.92,7.0,NE,23.0,26.5,N/A,,Overcast,50,2013-04-09 20:15:00
3:36 PM,41.0,37.4,87,29.91,5.0,NE,24.2,31.1,N/A,,Overcast,50,2013-04-09 20:36:00
3:55 PM,41.0,37.4,87,29.92,4.0,NE,18.4,27.6,N/A,,Overcast,50,2013-04-09 20:55:00
4:15 PM,41.0,37.4,87,29.94,5.0,NE,15.0,25.3,N/A,,Light Drizzle,50,2013-04-09 21:15:00
4:36 PM,41.0,37.4,87,29.96,5.0,NE,15.0,21.9,N/A,Thunderstorm,Overcast,50,2013-04-09 21:36:00
4:55 PM,41.0,37.4,87,29.96,4.0,NE,12.7,21.9,N/A,,Overcast,50,2013-04-09 21:55:00
5:15 PM,39.2,37.4,93,29.95,3.0,ENE,17.3,24.2,N/A,,Overcast,60,2013-04-09 22:15:00
5:36 PM,39.2,37.4,93,29.95,2.5,NE,18.4,23.0,N/A,,Light Drizzle,40,2013-04-09 22:36:00
5:56 PM,39.2,37.4,93,29.98,3.0,NE,15.0,20.7,N/A,Thunderstorm,Overcast,40,2013-04-09 22:56:00
6:15 PM,39.2,37.4,93,29.97,3.0,NE,16.1,24.2,N/A,,Overcast,40,2013-04-09 23:15:00
6:36 PM,39.2,37.4,93,29.99,5.0,NE,12.7,20.7,N/A,,Overcast,40,2013-04-09 23:36:00
6:55 PM,39.2,35.6,87,29.95,5.0,NE,19.6,25.3,0.01,Rain,Rain,50,2013-04-09 23:55:00
7:15 PM,39.2,35.6,87,29.86,7.0,NE,24.2,34.5,0.03,Rain-Thunderstorm,Thunderstorms and Rain,50,2013-04-10 00:15:00
7:36 PM,37.4,35.6,93,29.84,10.0,ENE,26.5,35.7,0.03,Rain-Thunderstorm,Light Thunderstorms and Rain,60,2013-04-10 00:36:00
7:55 PM,39.2,35.6,87,29.93,10.0,NE,15.0,27.6,0.04,Rain,Light Rain,50,2013-04-10 00:55:00
8:15 PM,39.2,35.6,87,29.94,10.0,NE,13.8,29.9,N/A,Rain-Thunderstorm,Light Thunderstorms and Rain,40,2013-04-10 01:15:00
8:35 PM,37.4,35.6,93,29.93,2.5,NE,16.1,29.9,0.04,Rain-Thunderstorm,Thunderstorms and Rain,40,2013-04-10 01:35:00
8:56 PM,37.4,35.6,93,29.93,3.0,NE,17.3,26.5,N/A,Rain-Thunderstorm,Thunderstorms and Rain,50,2013-04-10 01:56:00
9:15 PM,37.4,35.6,93,29.98,10.0,NE,13.8,24.2,0.03,Rain-Thunderstorm,Light Thunderstorms and Rain,40,2013-04-10 02:15:00
9:56 PM,37.4,35.6,93,29.99,3.0,ENE,17.3,26.5,N/A,Thunderstorm,Thunderstorm,60,2013-04-10 02:56:00
10:15 PM,37.4,35.6,93,29.94,3.0,ENE,20.7,26.5,0.06,Rain-Thunderstorm,Light Thunderstorms and Rain,60,2013-04-10 03:15:00
10:35 PM,37.4,33.8,87,29.97,5.0,NE,17.3,26.5,0.13,Rain-Thunderstorm,Thunderstorms and Rain,50,2013-04-10 03:35:00
10:56 PM,37.4,35.6,93,30.04,1.8,NE,8.1,-,0.01,Snow-Thunderstorm,Heavy Thunderstorms and Snow,50,2013-04-10 03:56:00
11:15 PM,37.4,33.8,87,29.95,3.0,NE,16.1,26.5,0.06,Snow-Thunderstorm,Snow,40,2013-04-10 04:15:00
11:35 PM,37.4,33.8,87,29.99,7.0,NE,12.7,19.6,0.08,Snow-Thunderstorm,Light Thunderstorms and Snow,50,2013-04-10 04:35:00
11:56 PM,37.4,33.8,87,30.00,7.0,NE,10.4,20.7,N/A,Rain-Thunderstorm,Rain,40,2013-04-10 04:56:00